Location: Lourdes
(43.1000°N, 0.0500°W)
Time: 05:36:25
(UTC+00:00)

USA 267 - Pass Details

Date: 30 November 2020
Orbit: 1100 x 1107 km, 123.0° (Epoch: 18 January)

Event Time Altitude Azimuth Distance (km) Brightness Sun altitude
Exits shadow 20:05:45 43° 299° (WNW) 1,512 4.2 -39.4°
Drops below altitude 10° 20:09:56 10° 309° (NW) 2,965 6.0 -40.1°
Sets 20:12:26 0° 311° (NW) 3,927 6.8 -40.6°
